[[{"header":{"parameterUnit":"m.s-1","parameterCategory":1,"la1":30.2991,"la2":30.254,"lo1":-89.0895,"lo2":-89.0444,"dy":0.0017,"dx":0.0017,"nx":28,"ny":28,"refTime":"2024-04-14T21:00:00:Z","depth":0,"parameterNumber":2,"parameterNumberName":"U-component_of_WINDS"},"data":[0,0,0,0,0,0,0,0,0,0,0,0,0,0,0,0,0,0,0,0,0,0,0,0,0,0,0,0,0,0,0,0,0,0,0,0,0,0,0,0,0,0,0,0,0,0,0,0,0,0,0,0,0,0,0,0,0,0,-1.9636,-1.9636,0,-1.9612,-1.9612,-1.9612,-1.9561,-1.956,-1.9559,-1.9558,-1.9535,-1.9535,-1.9536,0,0,0,0,0,0,0,0,0,0,0,0,0,-1.964,-1.964,-1.9636,-1.9636,-1.9636,-1.9612,-1.9612,-1.9612,-1.9562,-1.956,-1.9559,-1.9558,-1.9535,-1.9535,-1.9536,0,0,0,0,0,0,0,0,0,0,0,0,0,-1.963,-1.9641,-1.9636,-1.9608,-1.9605,-1.9612,-1.9612,-1.9612,-1.9562,-1.956,-1.9559,-1.9557,-1.9535,-1.9535,-1.9536,-1.9569,0,0,-1.9537,-1.9537,0,0,0,0,0,0,0,0,-1.963,-1.963,-1.9612,-1.961,-1.9607,-1.9588,-1.9605,-1.9597,-1.9562,-1.9578,-1.9558,-1.9557,-1.9554,-1.9553,-1.9552,-1.9568,-1.9567,-1.9537,-1.9537,-1.9538,-1.9538,0,0,0,0,0,0,0,-1.9631,-1.963,-1.9627,-1.9612,-1.9609,-1.9597,-1.9594,-1.9603,-1.9575,-1.9577,-1.9573,-1.9571,-1.9552,-1.9551,-1.9551,-1.9566,-1.9537,-1.9538,-1.9538,-1.9538,-1.9608,-1.9609,0,0,0,0,0,0,-1.9636,-1.9631,-1.9628,-1.9626,-1.9615,-1.9598,-1.9594,-1.9596,-1.9575,-1.957,-1.9572,-1.9569,-1.9551,-1.955,-1.955,-1.9586,-1.9538,-1.9538,-1.9538,-1.9606,-1.9608,-1.961,0,0,0,0,0,0,-1.9636,-1.9636,-1.9628,-1.9628,-1.9626,-1.9599,-1.9601,-1.9596,-1.9595,-1.9571,-1.9566,-1.9576,-1.955,-1.9549,-1.9564,-1.9584,-1.9538,-1.9539,-1.9605,-1.9607,-1.9609,-1.966,0,0,0,0,0,0,-1.9636,-1.9636,-1.9648,-1.9628,-1.9626,-1.9643,-1.9603,-1.9597,-1.9596,-1.9591,-1.9574,-1.9569,-1.9549,-1.9564,-1.9565,-1.9584,-1.9539,-1.9603,-1.9606,-1.9608,-1.9656,-1.9663,-1.967,0,0,0,0,0,-1.9637,-1.9664,-1.9649,-1.9649,-1.964,-1.9644,-1.9643,-1.9618,-1.9598,-1.961,-1.9594,-1.957,-1.9583,-1.9566,-1.9566,-1.9586,-1.9601,-1.9605,-1.9608,-1.9653,-1.9662,-1.967,0,0,0,0,0,0,-1.9687,-1.9661,-1.9644,-1.9666,-1.9658,-1.9636,-1.965,-1.9629,-1.9627,-1.9622,-1.9592,-1.9589,-1.9608,-1.9599,-1.9581,-1.9617,-1.9588,-1.9592,-1.9622,-1.963,-1.9637,-1.9638,-1.9539,0,0,0,0,0,-1.9701,-1.9706,-1.9683,-1.9704,-1.9701,-1.9677,-1.9677,-1.9659,-1.965,-1.9646,-1.9632,-1.9624,-1.9626,-1.9628,-1.9629,-1.9655,-1.965,-1.967,-1.9677,-1.9682,-1.9685,-1.9698,-1.9705,-1.9622,-1.9622,-1.9622,0,0,-1.9729,-1.9715,-1.972,-1.9714,-1.9705,-1.9711,-1.9674,-1.9682,-1.9686,-1.9647,-1.966,-1.965,-1.9639,-1.966,-1.9669,-1.9653,-1.9708,-1.9687,-1.9692,-1.9691,-1.9702,-1.971,-1.9717,-1.9624,-1.9624,-1.9623,0,0,-1.9783,-1.9774,-1.9789,-1.9782,-1.977,-1.9753,-1.9758,-1.9739,-1.9731,-1.9743,-1.9714,-1.9719,-1.9724,-1.9717,-1.9714,-1.9766,-1.9743,-1.9768,-1.9803,-1.9815,-1.9822,-1.9828,-1.9845,-1.9851,-1.9771,-1.9772,-1.9772,0,-1.9819,-1.9826,-1.9801,-1.981,-1.9808,-1.9774,-1.9789,-1.9784,-1.9773,-1.9772,-1.9755,-1.976,-1.9751,-1.9768,-1.9781,-1.9781,-1.9784,-1.9768,-1.9823,-1.9829,-1.9833,-1.9849,-1.9856,-1.9774,-1.9774,-1.9774,-1.9774,0,-1.9871,-1.9877,-1.9892,-1.9881,-1.9881,-1.9894,-1.987,-1.9873,-1.9856,-1.9841,-1.9854,-1.9842,-1.9839,-1.9843,-1.9826,-1.9858,-1.9849,-1.9829,-1.9798,-1.9845,-1.9859,-1.9865,-1.9779,-1.9777,-1.9777,-1.9776,0,0,-1.9954,-1.9929,-1.9935,-1.9929,-1.9914,-1.9918,-1.993,-1.9927,-1.993,-1.9924,-1.9932,-1.9937,-1.9918,-1.9915,-1.9897,-1.9909,-1.9949,-1.9886,-1.9885,-1.9897,-1.9983,-1.9997,-2.0004,-1.9935,-1.9936,-1.9937,-1.9983,0,-2.0002,-2.002,-1.9997,-2.002,-2.0024,-1.9992,-2.0003,-1.9994,-1.9982,-1.9984,-1.9971,-1.9974,-1.9949,-1.9947,-1.9957,-1.9942,-1.9966,-1.9939,-1.9941,-1.9942,-1.9943,-2.0012,-2.0027,-2.0071,-1.9989,-1.999,-1.999,0,-2.0061,-2.0057,-2.008,-2.0063,-2.0064,-2.0073,-2.0068,-2.0071,-2.0062,-2.0052,-2.0049,-2.0028,-2.0038,-2.0011,-2.0024,-2.0006,-2.0007,-2.0,-2.0001,-1.9998,-1.9967,-2.0009,-2.0084,-2.009,-1.9999,-1.9999,-1.9998,0,-2.0116,-2.0118,-2.0131,-2.0128,-2.0109,-2.0116,-2.0108,-2.0097,-2.0097,-2.0093,-2.0092,-2.0091,-2.0089,-2.0088,-2.0067,-2.0049,-2.0083,-2.0054,-2.0074,-2.0075,-2.008,-2.008,-2.0155,-2.0085,-2.0085,-2.0084,-2.0084,0,-2.0171,-2.0186,-2.0155,-2.0163,-2.0179,-2.0154,-2.017,-2.016,-2.015,-2.0156,-2.0129,-2.0135,-2.0108,-2.0111,-2.0095,-2.0108,-2.0108,-2.01,-2.0095,-2.0101,-2.0102,-2.0099,-2.0094,-2.0086,-2.0086,-2.0085,-2.0085,0,-2.0235,-2.0215,-2.0227,-2.0209,-2.0204,-2.0217,-2.0201,-2.0207,-2.0194,-2.0201,-2.0201,-2.018,-2.0182,-2.0162,-2.016,-2.015,-2.0169,-2.016,-2.0172,-2.0168,-2.0189,-2.0187,-2.0263,-2.0271,-2.0198,-2.0199,-2.0199,0,-2.027,-2.0281,-2.0263,-2.0265,-2.0258,-2.0262,-2.0261,-2.0237,-2.0238,-2.0228,-2.0236,-2.0236,-2.0234,-2.024,-2.0224,-2.0223,-2.0212,-2.0239,-2.0211,-2.0217,-2.021,-2.0209,-2.0209,-2.0244,-2.0245,-2.0245,-2.0246,0,-2.0334,-2.0324,-2.0324,-2.032,-2.032,-2.0317,-2.0311,-2.0314,-2.0289,-2.0291,-2.0292,-2.0291,-2.029,-2.029,-2.0286,-2.0278,-2.0258,-2.0255,-2.0259,-2.0264,-2.027,-2.0265,-2.0185,-2.0253,-2.0252,-2.0252,-2.0251,-2.0251,-2.0383,-2.039,-2.0379,-2.038,-2.0373,-2.0369,-2.0374,-2.0361,-2.0362,-2.0359,-2.0345,-2.0349,-2.034,-2.0332,-2.0327,-2.033,-2.0316,-2.0323,-2.0324,-2.0326,-2.0329,-2.0272,-2.0329,-2.0329,-2.0329,-2.0328,-2.0328,0,-2.0444,-2.0435,-2.0436,-2.0429,-2.043,-2.0411,-2.0405,-2.0406,-2.041,-2.0403,-2.0402,-2.0404,-2.0405,-2.0389,-2.0388,-2.0393,-2.0383,-2.0393,-2.0391,-2.039,-2.0341,-2.0337,-2.0401,-2.0401,-2.0401,-2.0401,-2.0401,-2.0401,-2.0475,-2.0486,-2.0475,-2.0483,-2.0475,-2.0478,-2.0476,-2.0472,-2.0466,-2.0469,-2.0469,-2.0459,-2.0449,-2.0446,-2.0445,-2.0441,-2.0441,-2.0453,-2.0446,-2.04,-2.0393,-2.0386,-2.0382,-2.0454,-2.0454,-2.0493,-2.0493,-2.0494]},{"header":{"parameterUnit":"m.s-1","parameterCategory":1,"la1":30.2991,"la2":30.254,"lo1":-89.0895,"lo2":-89.0444,"dy":0.0017,"dx":0.0017,"nx":28,"ny":28,"refTime":"2024-04-14T21:00:00:Z","depth":0,"parameterNumber":3,"parameterNumberName":"V-component_of_WINDS"},"data":[0,0,0,0,0,0,0,0,0,0,0,0,0,0,0,0,0,0,0,0,0,0,0,0,0,0,0,0,0,0,0,0,0,0,0,0,0,0,0,0,0,0,0,0,0,0,0,0,0,0,0,0,0,0,0,0,0,0,1.2147,1.2147,0,1.2152,1.2152,1.2152,1.216,1.216,1.216,1.216,1.2165,1.2165,1.2165,0,0,0,0,0,0,0,0,0,0,0,0,0,1.2146,1.2146,1.2147,1.2147,1.2147,1.2152,1.2152,1.2152,1.216,1.216,1.216,1.216,1.2165,1.2165,1.2165,0,0,0,0,0,0,0,0,0,0,0,0,0,1.2148,1.2146,1.2147,1.2151,1.2152,1.2152,1.2152,1.2152,1.216,1.216,1.216,1.216,1.2165,1.2165,1.2165,1.2161,0,0,1.2165,1.2165,0,0,0,0,0,0,0,0,1.2148,1.2148,1.2151,1.2151,1.2152,1.2155,1.2153,1.2155,1.2159,1.2157,1.216,1.216,1.2162,1.2162,1.2162,1.2161,1.2161,1.2165,1.2165,1.2165,1.2165,0,0,0,0,0,0,0,1.2148,1.2148,1.2149,1.2151,1.2151,1.2154,1.2154,1.2154,1.2158,1.2157,1.2157,1.2158,1.2162,1.2162,1.2163,1.2161,1.2165,1.2165,1.2165,1.2165,1.2159,1.2159,0,0,0,0,0,0,1.2147,1.2148,1.2148,1.2149,1.215,1.2154,1.2154,1.2154,1.2158,1.2159,1.2158,1.2158,1.2162,1.2163,1.2163,1.2159,1.2165,1.2165,1.2165,1.2159,1.2159,1.2159,0,0,0,0,0,0,1.2147,1.2147,1.2148,1.2149,1.2149,1.2153,1.2153,1.2154,1.2154,1.2159,1.2159,1.2157,1.2163,1.2163,1.2162,1.2159,1.2165,1.2165,1.2159,1.2159,1.2159,1.2151,0,0,0,0,0,0,1.2147,1.2147,1.2145,1.2148,1.2149,1.2146,1.2153,1.2154,1.2154,1.2155,1.2158,1.2159,1.2163,1.2162,1.2162,1.2159,1.2165,1.2159,1.2159,1.2159,1.2151,1.215,1.215,0,0,0,0,0,1.2147,1.2142,1.2145,1.2145,1.2146,1.2146,1.2147,1.2151,1.2154,1.2152,1.2155,1.2159,1.216,1.2161,1.2162,1.2159,1.216,1.2159,1.2159,1.2152,1.2151,1.215,0,0,0,0,0,0,1.2137,1.2142,1.2145,1.2141,1.2143,1.2148,1.2145,1.2149,1.215,1.2151,1.2156,1.2157,1.2155,1.2157,1.2159,1.2156,1.216,1.216,1.2155,1.2154,1.2153,1.2153,1.2165,0,0,0,0,0,1.2135,1.2134,1.2139,1.2135,1.2136,1.2141,1.2141,1.2144,1.2146,1.2147,1.215,1.2152,1.2154,1.2154,1.2155,1.2152,1.2154,1.2151,1.215,1.2149,1.2149,1.2149,1.2148,1.2157,1.2157,1.2157,0,0,1.2129,1.2132,1.2131,1.2133,1.2135,1.2135,1.2141,1.214,1.214,1.2147,1.2146,1.2149,1.2152,1.215,1.215,1.2152,1.2147,1.2149,1.2148,1.2148,1.2148,1.2147,1.2147,1.2157,1.2157,1.2157,0,0,1.212,1.2121,1.2119,1.2121,1.2124,1.2128,1.2127,1.2131,1.2134,1.2133,1.2138,1.2139,1.214,1.2143,1.2144,1.2138,1.2142,1.2138,1.2133,1.2134,1.2133,1.2132,1.2131,1.213,1.2138,1.2138,1.2138,0,1.2112,1.2112,1.2117,1.2117,1.2118,1.2124,1.2123,1.2125,1.2128,1.2129,1.2132,1.2134,1.2137,1.2137,1.2135,1.2136,1.2137,1.2137,1.2132,1.2132,1.2131,1.213,1.213,1.2137,1.2137,1.2137,1.2138,0,1.2104,1.2104,1.2102,1.2105,1.2106,1.2105,1.2111,1.2111,1.2115,1.2119,1.2119,1.2123,1.2125,1.2126,1.2129,1.2127,1.2128,1.2131,1.2135,1.213,1.2129,1.2128,1.2137,1.2137,1.2137,1.2137,0,0,1.2086,1.2095,1.2094,1.2096,1.2101,1.2102,1.2102,1.2104,1.2105,1.2108,1.2109,1.2111,1.2114,1.2116,1.212,1.212,1.2116,1.2124,1.2124,1.2123,1.2115,1.2113,1.2112,1.2119,1.2119,1.2119,1.2115,0,1.2078,1.2078,1.2084,1.2082,1.2083,1.209,1.2091,1.2094,1.2098,1.21,1.2104,1.2106,1.211,1.2112,1.2112,1.2117,1.2115,1.2117,1.212,1.2121,1.2119,1.2111,1.2108,1.2105,1.2115,1.2115,1.2115,0,1.2068,1.2071,1.2069,1.2076,1.2077,1.2077,1.2081,1.2082,1.2087,1.209,1.2093,1.2098,1.2099,1.2104,1.2106,1.2108,1.211,1.2112,1.2112,1.2113,1.2117,1.2112,1.2103,1.2103,1.2114,1.2114,1.2114,0,1.2056,1.206,1.206,1.2062,1.207,1.207,1.2073,1.2078,1.208,1.2084,1.2086,1.2089,1.2092,1.2095,1.2101,1.2103,1.2104,1.2108,1.2107,1.2107,1.2106,1.2106,1.2098,1.2107,1.2107,1.2107,1.2107,0,1.2046,1.2045,1.2055,1.2055,1.2055,1.2062,1.2062,1.2066,1.2071,1.2073,1.208,1.2081,1.209,1.2092,1.2097,1.21,1.21,1.2103,1.2105,1.2103,1.2102,1.2104,1.2105,1.2107,1.2107,1.2107,1.2107,0,1.2033,1.2039,1.204,1.2048,1.205,1.205,1.2057,1.2058,1.2063,1.2065,1.2066,1.2074,1.2078,1.2085,1.209,1.2094,1.2095,1.2097,1.2094,1.2095,1.2093,1.2093,1.2086,1.2085,1.2094,1.2094,1.2094,0,1.2026,1.2026,1.2034,1.2036,1.2039,1.2042,1.2044,1.2052,1.2054,1.2061,1.2061,1.2066,1.207,1.2076,1.2083,1.2088,1.209,1.2087,1.2091,1.2089,1.2091,1.2091,1.2091,1.2086,1.2086,1.2086,1.2086,0,1.2014,1.2017,1.202,1.2025,1.2028,1.2032,1.2037,1.2038,1.2047,1.205,1.2054,1.2057,1.2064,1.2068,1.2075,1.2079,1.2084,1.2085,1.2085,1.2083,1.2081,1.2083,1.2092,1.2085,1.2085,1.2085,1.2085,1.2085,1.2004,1.2004,1.2011,1.2015,1.2019,1.2024,1.2026,1.2031,1.2035,1.2041,1.2046,1.205,1.2057,1.2066,1.207,1.2074,1.2076,1.2076,1.2076,1.2076,1.2075,1.208,1.2075,1.2075,1.2075,1.2075,1.2075,0,1.1992,1.1997,1.2001,1.2007,1.2011,1.2016,1.2022,1.2024,1.2028,1.2034,1.2038,1.2044,1.2049,1.2057,1.2063,1.2065,1.2068,1.2066,1.2066,1.2067,1.2073,1.2072,1.2064,1.2064,1.2064,1.2064,1.2064,1.2064,1.1986,1.1988,1.1993,1.1998,1.2003,1.2008,1.2011,1.2015,1.202,1.2027,1.2031,1.2036,1.2043,1.205,1.2056,1.2058,1.206,1.2058,1.2061,1.2066,1.2067,1.2068,1.2067,1.2058,1.2058,1.2055,1.2055,1.2055]}]]